Lapse_Rate
-1.8 -2.4 -2.5 -2.3 -2.7 -2.9 -3.2 -3.3 -3.6 -3.9 -4.2 -4.7 -5.1 -5.6 -6.0 -6.2 -6.1 2.0 8.7 5.4 6.1 3.2 1.3 9.6 9.5 9.3 9.3 8.6 8.7 8.6 6.5 6.5 6.5 6.5 6.5 7.3 6.6 7.8 8.3 7.6 7.9 8.2 8.1 8.7 9.3
-2.0 -2.2 -2.7 -2.7 -2.8 -3.1 -3.4 -3.5 -3.9 -4.2 -4.6 -5.1 -5.4 -5.7 -6.0 -6.6 1.8 8.9 1.6 2.2 2.3 2.1 8.7 8.9 8.4 8.8 8.3 8.0 8.0 6.9 6.5 6.5 6.5 6.6 6.5 7.0 7.0 7.3 7.2 7.2 7.3 7.7 8.6 9.0 9.2
-2.2 -2.3 -2.5 -3.0 -2.9 -3.3 -3.5 -3.7 -4.0 -4.5 -4.9 -5.4 -5.5 -5.9 -6.2 -5.2 6.8 8.6 0.3 1.3 1.1 2.0 9.7 9.4 9.1 8.5 7.5 7.9 7.4 7.1 6.5 6.5 6.8 7.3 7.4 7.0 7.0 7.7 6.9 6.5 7.4 7.3 8.0 8.7 8.8
-2.3 -2.5 -2.8 -3.1 -3.4 -3.5 -3.7 -3.9 -4.4 -4.8 -5.3 -5.7 -5.7 -6.0 -6.3 2.7 6.5 7.7 0.3 0.9 1.0 6.9 9.6 9.0 8.6 7.6 6.8 6.5 7.5 6.5 7.0 7.1 7.2 7.5 7.3 6.6 7.6 7.0 7.2 7.3 8.2 8.3 8.5 8.7 8.6
-2.5 -2.7 -3.0 -3.3 -3.6 -3.7 -4.2 -4.4 -4.7 -5.3 -5.4 -5.9 -5.7 -6.0 -0.2 7.8 8.1 5.0 0.3 1.5 6.8 9.7 9.0 8.5 7.9 7.6 6.5 6.8 7.1 6.5 6.6 7.3 7.5 7.5 7.5 7.6 7.0 6.8 7.1 8.0 8.4 8.5 8.6 8.5 8.7
-2.6 -2.8 -3.2 -3.5 -3.6 -4.1 -4.6 -4.9 -5.3 -5.6 -5.6 -5.7 -5.7 -6.5 6.2 7.0 9.8 6.8 9.5 8.9 9.7 9.4 9.0 8.9 8.1 8.3 7.4 7.0 6.7 7.2 7.1 7.1 7.4 7.2 7.3 6.8 6.8 7.2 7.4 8.1 8.1 8.2 8.2 8.5 8.6
-2.3 -2.9 -3.2 -3.8 -4.0 -4.3 -4.8 -5.2 -5.6 -5.6 -5.2 -5.1 -5.4 1.1 8.5 8.1 9.6 9.8 9.9 9.7 9.8 9.5 8.7 9.1 9.0 8.1 7.8 6.6 7.7 7.3 6.5 6.5 6.8 7.1 6.6 7.4 6.5 6.5 7.6 8.0 7.7 7.9 8.2 8.3 8.5
-2.3 -2.9 -3.3 -3.8 -4.3 -4.5 -5.3 -5.7 -5.8 -5.0 -4.5 -4.9 -5.0 4.7 7.9 8.8 9.8 8.9 10.0 9.6 9.9 9.9 9.4 9.4 9.3 8.5 7.8 7.9 7.2 6.5 6.5 6.5 6.5 6.7 7.0 6.9 6.5 6.5 7.8 7.7 7.4 7.7 8.0 8.2 8.4
-2.4 -2.9 -3.5 -3.9 -4.4 -5.0 -5.5 -5.7 -4.9 -3.7 -4.1 -3.8 3.2 8.3 7.5 3.7 8.9 9.8 9.9 9.0 9.4 9.5 9.4 9.3 9.0 7.9 7.6 6.5 6.5 6.5 6.5 6.5 6.5 6.8 6.5 6.5 6.5 6.6 7.7 7.5 7.3 7.6 7.8 8.1 8.3
-2.5 -3.1 -3.6 -4.2 -4.5 -5.2 -5.6 -5.5 -3.5 -3.7 -1.4 4.5 6.9 8.1 8.6 8.0 9.2 9.5 9.9 9.5 8.8 8.7 8.3 8.1 7.8 6.5 6.5 6.5 6.5 6.5 6.5 6.5 6.5 6.5 6.5 6.5 6.5 6.5 7.3 7.3 7.2 7.5 7.7 7.9 8.2
-2.5 -3.1 -3.7 -4.3 -4.7 -5.2 -1.7 5.2 7.3 7.9 8.9 7.9 7.9 7.8 8.3 9.1 9.6 9.1 9.5 9.0 8.8 8.0 6.5 7.3 6.5 6.5 6.5 6.5 6.5 6.5 6.5 6.5 6.5 6.5 6.5 6.5 6.5 6.5 6.9 7.2 7.0 7.3 7.5 7.8 8.0
-2.4 -3.2 -3.7 -4.4 -5.0 -5.2 -0.6 8.9 8.7 9.1 7.3 8.8 8.7 8.5 8.9 9.2 7.8 8.6 9.5 7.8 7.3 6.5 6.8 6.5 6.5 6.5 6.5 6.5 6.5 6.5 6.5 6.5 6.5 6.5 6.5 6.5 6.5 6.5 6.5 6.8 7.1 7.3 7.5 7.8 8.0
-2.3 -3.2 -3.8 -4.6 -5.1 0.1 9.4 9.1 10.0 9.9 7.4 7.7 8.5 8.3 8.5 8.9 7.6 7.9 8.8 8.1 6.8 6.5 6.5 6.5 6.5 6.6 6.5 6.5 6.5 6.5 6.5 6.5 6.5 6.5 6.5 6.5 6.5 6.5 6.5 7.0 7.3 7.6 7.8 8.0 8.0
-2.2 -2.9 -3.7 -5.3 0.2 9.4 9.1 9.9 10.1 9.9 6.5 6.5 7.0 8.0 8.7 8.5 7.1 8.8 9.1 8.0 6.8 6.5 6.5 6.5 6.7 6.5 6.5 6.5 6.5 6.5 6.5 6.5 6.5 6.5 6.5 6.5 6.5 6.5 6.5 6.5 6.5 7.2 7.5 7.8 8.0
-1.9 -2.8 -3.5 -4.5 4.1 9.1 9.4 10.0 10.2 9.2 6.5 6.5 6.9 9.1 8.6 7.5 7.6 7.6 9.1 8.1 6.5 6.5 6.5 6.5 6.5 6.5 6.5 6.5 6.5 6.5 6.5 6.5 6.5 6.5 6.5 6.5 6.5 6.5 6.5 6.5 6.5 6.8 7.4 7.7 8.2
-1.8 -2.9 -3.7 4.1 6.0 9.7 9.8 10.1 9.4 6.5 6.5 6.5 7.0 6.6 6.5 7.4 7.1 7.8 7.8 8.4 8.0 6.5 6.5 6.5 7.2 6.6 6.5 6.5 6.5 6.5 6.5 6.5 6.5 6.5 6.5 6.5 6.5 6.5 6.5 6.5 6.5 6.8 7.4 7.7 8.1
-2.3 -3.2 -2.3 4.5 9.0 9.8 10.1 9.2 6.5 6.5 6.5 6.5 6.5 6.5 6.5 6.5 6.5 6.6 6.5 6.5 6.5 6.5 6.5 6.5 6.5 6.6 6.9 6.5 6.5 6.5 6.5 6.5 6.5 6.5 6.5 6.5 6.5 6.5 6.5 6.5 6.5 6.6 7.3 7.9 8.2
-3.0 -4.0 1.5 5.4 9.4 8.8 9.4 6.7 6.5 6.5 6.5 6.5 6.5 6.5 6.5 6.5 6.5 6.5 6.5 6.5 6.5 6.5 6.5 6.5 6.5 6.5 6.5 6.5 6.5 6.5 6.5 6.5 6.5 6.5 6.5 6.5 6.5 6.5 6.5 6.9 7.2 7.4 7.6 8.0 8.2
-3.9 7.4 9.1 9.9 8.4 9.8 8.3 6.5 6.5 6.5 6.5 6.5 6.5 6.5 6.5 6.5 6.5 6.5 6.5 6.5 6.5 6.5 6.5 6.5 6.5 6.5 6.5 6.5 6.5 6.5 6.5 6.5 6.5 6.5 6.5 6.5 6.5 6.5 6.5 6.5 6.8 7.1 7.4 7.7 8.0
4.5 9.4 9.3 9.6 9.5 9.3 6.9 6.5 6.5 6.6 6.6 6.5 6.5 6.5 6.5 6.5 6.5 6.5 6.5 6.5 6.5 6.5 6.9 6.5 6.5 6.5 6.5 6.7 6.6 6.5 6.5 6.5 6.5 6.5 6.5 6.5 6.5 6.5 6.5 6.5 6.5 6.6 7.1 7.5 7.9
6.2 8.3 9.2 9.8 10.0 8.4 6.5 6.5 6.5 7.3 7.3 6.5 6.5 6.5 6.5 6.5 6.5 6.5 6.5 6.5 6.5 6.5 6.8 6.5 6.5 6.5 6.5 6.5 6.5 6.5 6.5 6.5 6.5 6.5 6.5 6.5 6.5 6.5 6.5 6.5 6.5 6.7 7.3 7.6 7.9
9.1 6.6 9.6 10.1 7.4 7.4 6.5 6.5 1.9 6.8 7.5 6.5 6.6 6.5 6.5 6.5 6.5 6.5 6.5 6.5 7.1 6.9 6.5 6.5 6.5 6.5 6.5 6.5 6.5 6.5 6.5 6.5 6.5 6.5 6.5 6.5 6.5 6.5 6.5 6.5 6.8 7.0 7.5 7.9 8.1
8.2 8.0 9.7 9.5 6.5 6.5 6.7 6.5 6.9 6.5 6.5 6.5 6.5 6.5 6.5 6.5 6.5 6.5 6.5 7.0 7.2 6.6 6.5 6.5 6.5 6.5 6.5 6.5 6.5 6.5 6.5 6.5 6.5 6.5 6.5 6.5 6.5 6.5 6.6 6.6 7.0 7.1 7.5 7.7 8.0
8.5 6.5 8.1 8.7 8.3 6.6 6.5 6.5 6.5 7.4 6.9 7.0 6.5 6.7 6.5 6.5 6.5 6.5 6.5 6.6 7.2 7.0 3.1 5.8 6.5 6.5 6.5 6.5 6.5 6.5 6.5 6.5 6.5 6.5 6.5 6.5 6.5 6.5 6.5 6.5 6.8 7.2 7.5 7.8 7.9
8.5 6.8 7.7 6.5 6.7 6.5 6.6 6.5 6.5 6.5 7.1 7.3 6.5 6.5 6.5 6.5 6.5 6.5 6.5 6.5 6.8 3.3 6.1 6.5 6.5 6.5 6.5 6.5 6.5 6.5 6.5 6.5 6.5 6.5 6.5 6.5 6.5 6.5 6.5 6.5 6.9 7.4 7.5 7.7 7.8
8.1 7.5 8.0 7.2 7.3 6.6 6.5 6.5 6.5 6.5 6.5 6.5 6.5 6.5 6.5 6.5 6.5 6.5 6.5 6.5 6.5 6.5 6.5 6.5 6.5 6.5 6.5 6.5 6.5 6.5 6.5 6.5 6.5 6.5 6.5 6.5 6.5 6.5 7.0 7.3 7.1 7.2 7.5 7.5 7.7
9.4 9.3 8.5 5.3 6.8 6.5 6.5 6.5 6.5 6.6 7.0 7.2 6.6 6.5 6.5 6.5 7.3 7.4 7.5 7.3 6.8 6.5 6.5 6.5 6.5 6.5 6.5 6.5 6.5 6.5 6.5 6.5 6.5 6.5 6.5 6.5 6.5 6.5 6.5 6.6 6.9 7.2 7.5 7.6 7.9
Wind_Speed
15 16 16 16 17 16 16 17 16 16 14 15 13 13 12 13 17 6 6 3 1 4 6 6 8 10 10 11 9 12 5 6 5 9 8 7 4 7 3 8 2 3 9 14 17
16 17 17 18 18 18 18 18 18 17 16 14 14 13 12 11 9 11 5 6 1 9 9 7 6 8 11 7 5 9 13 14 13 7 8 4 4 4 5 11 6 7 9 16 18
19 18 18 19 19 20 20 19 20 19 17 15 13 13 12 12 8 6 7 6 5 9 11 7 6 9 11 7 4 11 9 7 7 7 5 7 2 3 3 6 15 11 13 16 17
18 20 21 21 21 21 21 21 20 19 18 16 13 13 12 7 1 6 8 6 8 12 8 5 8 10 10 9 3 10 6 3 6 3 5 8 7 6 2 8 7 9 16 16 16
20 21 21 22 22 23 22 23 21 19 19 15 12 11 8 8 6 6 7 8 10 6 7 6 8 8 10 2 5 9 3 3 3 5 8 8 11 5 7 4 8 11 14 17 15
21 21 22 23 23 23 24 24 23 19 17 13 9 10 6 9 3 10 8 9 5 7 3 7 2 5 7 6 9 5 6 8 8 3 6 8 9 1 7 2 10 9 12 14 15
20 22 23 23 24 24 24 24 23 19 15 8 6 6 9 2 1 8 9 3 2 7 4 1 3 9 2 10 4 10 11 15 12 4 6 12 18 4 4 3 7 10 11 11 14
21 22 24 24 25 25 26 25 21 12 9 5 6 8 7 4 2 6 7 5 5 5 5 2 6 11 9 6 11 13 16 14 10 1 5 12 7 8 3 7 8 9 10 12 14
23 23 24 25 25 25 25 23 11 7 8 6 7 6 5 6 9 11 8 5 6 5 3 4 11 12 6 13 14 15 13 18 5 6 4 7 10 11 1 3 9 9 10 13 13
24 25 26 26 25 25 25 13 6 7 8 8 7 7 7 7 11 8 6 5 6 7 7 9 8 10 11 10 11 7 12 7 4 4 3 12 8 7 7 4 6 10 10 12 13
25 26 27 28 26 25 16 5 5 7 11 10 1 6 4 5 5 9 9 9 8 8 12 9 10 12 10 4 11 9 7 8 7 2 6 15 5 12 5 6 7 9 9 11 12
26 27 28 30 29 26 9 7 8 6 9 15 12 7 4 6 8 12 12 11 9 12 11 6 13 1 2 6 8 8 9 10 4 1 8 12 11 10 3 2 4 10 9 12 11
27 27 28 31 33 10 8 6 6 7 7 11 11 14 11 11 11 16 16 15 10 13 10 16 9 3 7 9 10 11 10 6 8 4 14 11 18 12 8 5 5 6 11 12 13
26 27 27 35 7 3 7 3 7 3 6 14 10 9 15 11 11 10 17 11 9 11 10 11 4 5 9 10 8 15 6 4 9 10 9 2 11 12 10 9 9 7 7 11 14
26 26 26 14 12 6 6 4 6 4 7 13 11 7 11 14 12 13 16 12 12 9 5 5 7 9 9 8 5 3 3 7 9 11 12 11 7 3 8 5 7 5 10 7 12
27 25 25 6 7 9 6 5 5 7 9 9 10 13 16 20 10 13 15 13 9 10 11 12 1 7 12 6 8 4 8 12 12 13 12 13 4 11 5 9 3 5 8 10 13
30 26 10 9 0 5 6 7 7 10 6 10 12 17 19 15 16 13 18 17 11 11 13 14 13 10 7 9 10 10 11 10 11 11 9 8 5 9 7 6 2 3 10 13 14
34 24 10 10 7 6 6 8 11 13 8 4 3 12 17 18 18 17 17 17 20 14 11 11 14 17 11 14 10 11 12 11 15 10 5 6 3 3 6 2 3 3 10 14 14
37 6 7 5 8 5 7 11 11 9 4 7 7 12 14 15 11 17 18 19 18 17 12 8 6 8 4 7 11 14 11 15 17 18 12 14 7 8 8 2 5 7 10 14 14
5 6 5 2 7 7 9 18 8 5 2 8 11 11 13 13 12 17 17 17 18 16 15 3 6 10 10 7 9 12 9 9 9 15 16 8 5 4 9 8 11 7 11 12 12
6 5 5 6 7 8 12 19 16 4 6 5 10 5 11 12 16 15 12 4 13 15 13 15 6 7 7 11 14 9 11 12 16 10 10 4 6 10 5 7 12 8 11 12 12
6 4 5 6 8 11 13 16 4 7 9 8 4 7 4 6 9 12 16 9 5 8 17 16 8 10 14 10 6 11 12 12 9 13 11 11 4 20 8 9 4 9 12 13 13
4 2 4 7 8 10 13 7 3 13 10 9 9 5 3 5 6 9 8 12 4 9 4 10 7 10 13 11 13 11 14 13 9 12 11 12 2 9 10 1 4 10 13 12 13
5 5 4 7 9 9 15 11 12 7 10 8 6 2 7 8 5 6 7 5 4 9 9 5 11 11 14 4 12 14 14 13 13 12 13 16 13 12 17 11 7 9 13 13 13
4 2 5 7 10 11 6 7 16 10 13 10 9 11 10 8 10 7 12 9 9 5 5 9 12 14 17 18 12 11 12 14 13 15 17 10 6 17 6 7 10 10 13 14 15
6 5 3 3 4 7 8 11 12 14 7 10 14 13 11 9 10 10 11 9 10 12 13 10 8 13 16 15 14 13 12 14 16 13 18 22 5 29 7 8 4 8 14 14 15
6 4 6 6 8 9 9 10 10 4 7 10 10 13 8 6 9 9 11 6 7 7 6 8 10 11 13 17 20 14 15 15 16 14 16 12 7 8 7 9 3 6 11 14 14
Wind_Direction
9 3 355 355 349 346 342 337 336 337 336 331 325 322 323 322 304 230 255 65 88 170 260 257 233 252 246 259 252 251 246 128 94 60 78 82 34 103 44 118 74 86 58 112 135
4 359 353 351 347 344 338 335 335 335 332 328 324 317 316 324 276 242 115 132 211 222 241 230 220 224 234 251 251 259 297 65 43 50 23 72 3 38 227 118 142 123 112 123 146
359 352 352 349 346 342 334 335 332 330 327 325 320 312 310 307 267 76 143 162 211 214 266 265 265 249 251 252 222 275 90 87 100 42 357 332 270 126 272 227 136 159 147 150 154
356 351 349 347 344 337 335 332 329 326 323 321 316 304 310 252 10 61 141 169 207 262 240 234 230 224 239 214 202 270 50 29 50 347 323 333 336 304 150 57 72 139 156 160 165
354 349 347 344 339 334 333 329 324 327 318 316 312 306 288 237 67 119 169 172 209 232 231 238 228 244 235 236 230 258 101 245 243 281 325 315 270 333 299 67 113 135 162 167 171
351 346 344 340 336 333 331 328 324 324 318 310 305 301 259 259 87 141 176 179 235 230 183 237 312 325 310 257 258 51 276 274 265 259 266 294 292 185 100 67 142 160 176 173 171
350 345 341 338 334 332 328 325 323 322 319 291 284 278 266 333 69 157 183 226 189 261 198 308 301 243 15 241 242 263 261 250 225 256 293 310 245 66 24 157 145 174 180 176 166
347 344 338 337 332 329 325 322 319 327 310 299 266 263 284 89 168 184 190 179 215 209 301 252 267 276 256 313 258 241 244 255 178 348 103 290 86 74 136 169 150 163 170 164 163
345 342 337 333 329 325 321 317 298 287 271 254 249 243 251 141 197 192 198 217 185 200 200 265 259 261 228 242 243 217 249 225 130 104 327 267 328 112 150 146 143 163 164 164 164
343 339 335 331 327 323 316 293 291 267 227 229 263 261 218 220 168 176 176 231 195 193 217 238 238 240 215 238 251 298 204 242 255 186 227 267 264 328 123 232 170 154 176 173 174
341 337 333 328 324 322 317 227 220 198 224 253 84 264 146 123 152 193 180 200 218 215 230 208 249 221 231 315 350 317 303 299 300 86 269 274 294 278 84 238 182 167 184 184 178
339 336 333 326 321 316 283 271 44 338 293 215 246 265 272 212 183 190 189 204 198 219 219 200 234 18 61 283 274 263 267 261 262 15 258 275 279 288 160 212 229 183 182 197 174
337 334 332 325 318 292 281 21 333 315 260 205 218 221 194 210 221 186 197 216 203 223 198 257 67 79 228 230 252 242 268 298 293 302 261 252 262 235 175 164 209 245 172 198 171
335 332 331 327 302 338 239 28 314 317 266 168 195 211 194 218 229 188 198 206 217 245 216 253 190 218 219 248 244 280 140 281 271 272 290 202 298 193 167 183 177 207 201 188 158
331 328 326 326 315 236 37 300 321 247 259 139 134 105 192 204 131 189 184 207 245 203 228 187 217 208 231 246 230 316 328 282 289 276 277 269 239 213 181 235 119 185 166 182 156
326 325 323 231 223 282 300 296 244 227 239 160 151 185 184 207 176 145 183 223 241 248 221 274 246 213 231 216 243 347 266 256 258 259 257 240 278 294 55 43 61 133 144 150 154
323 318 294 305 353 338 289 238 222 236 134 159 184 176 192 186 199 188 187 197 204 202 213 212 207 214 246 228 206 239 262 261 242 231 246 112 224 292 21 60 327 341 140 150 148
320 315 208 252 306 283 245 224 242 213 196 54 235 196 199 180 202 192 193 208 222 220 274 211 203 201 186 239 251 212 252 270 292 284 14 171 267 83 53 96 157 138 141 151 148
315 206 228 193 225 243 229 222 219 238 70 209 176 216 206 191 211 197 207 213 208 225 240 216 228 132 201 220 231 238 253 267 278 269 265 281 252 190 143 158 125 157 150 159 150
296 239 160 207 216 217 228 239 233 16 321 274 217 206 197 199 195 194 200 217 218 199 238 317 252 179 178 232 236 267 307 237 231 267 279 263 341 158 160 166 120 140 160 156 151
251 226 107 165 195 215 220 228 230 160 253 234 260 199 250 186 202 196 223 121 232 183 220 238 224 169 166 221 249 183 234 250 282 289 304 230 264 4 106 109 135 148 159 161 162
284 229 135 194 201 218 223 237 32 223 220 244 290 275 266 217 225 261 226 194 195 234 201 222 223 251 229 246 225 291 292 226 251 231 269 289 172 226 147 128 200 160 167 163 164
270 42 168 230 220 213 223 254 193 227 222 214 227 251 219 228 263 243 238 83 167 243 231 207 228 240 244 246 200 243 244 251 267 278 262 281 18 42 26 160 163 152 163 162 157
276 192 152 211 276 295 216 222 205 245 258 239 258 224 206 220 214 209 238 139 210 258 21 3 253 247 262 96 275 196 243 239 230 243 245 239 264 187 201 141 147 165 161 163 166
246 349 2 195 216 228 272 227 217 185 239 206 213 232 217 224 200 224 228 169 213 126 220 233 248 259 259 278 275 265 251 221 230 239 254 273 66 321 38 78 146 172 159 175 171
313 330 203 328 343 239 158 220 240 223 197 214 240 209 228 237 235 221 210 227 226 182 229 226 243 259 277 268 260 257 247 261 274 236 247 259 209 186 135 92 135 170 168 185 177
360 253 276 121 200 233 190 215 233 260 188 299 213 241 214 231 315 23 329 345 343 304 246 236 240 248 256 252 248 232 242 257 251 245 250 267 292 6 113 96 113 178 176 185 185